Cairns, Australia

7:00 AM AEST on December 19, 2017 (GMT +1000)
Cairns International

Weather History for YBCS - January, 2015

Change the Weather History Date:

Saturday, January 24, 2015

  Actual Average Record
Temperature  
Mean Temperature 83 °F -  
Max Temperature 89 °F 88 °F 92 °F (2017)
Min Temperature 77 °F 74 °F 71 °F (2011)
Cooling Degree Days 18    
Growing Degree Days 33 (Base 50)    
Moisture  
Dew Point 76 °F    
Average Humidity 80    
Maximum Humidity 94    
Minimum Humidity 49    
Precipitation  
Precipitation 0.16 in 0.55 in - ()
Sea Level Pressure  
Sea Level Pressure 29.72 in    
Wind  
Wind Speed 7 mph ()    
Max Wind Speed 17 mph    
Max Gust Speed -    
Visibility 6.7 miles    
Events Rain , Thunderstorm    
Averages and records for this station are not official NWS values.
T = Trace of Precipitation, MM = Missing Value Source: Averaged Metar Reports

Daily Weather History Graph

Daily Weather History Graph

Search for Another Location

Airport or City:

Trip Planner

Search our weather history database for the weather conditions in past years. The results will help you decide how hot, cold, wet, or windy it might be!

Date:

Astronomy

Jan. 24, 2015 Rise Set
Actual Time 6:00 AM AEST 6:57 PM AEST
Civil Twilight 5:37 AM AEST 7:20 PM AEST
Nautical Twilight 5:10 AM AEST 7:47 PM AEST
Astronomical Twilight 4:42 AM AEST 8:15 PM AEST
Moon 9:29 AM AEST (1/24) 9:55 PM AEST (1/24)
Length of Visible Light 13h 42m
Length of Day
12h 56m
Waxing Crescent, 17% of the Moon is Illuminated
Jan 24
Waxing Crescent
Jan 27
First Quarter
Feb 4
Full
Feb 12
Last Quarter
Feb 19
New

Hourly Weather History & Observations

Time (AEST) Temp. Heat Index Dew Point Humidity Pressure Visibility Wind Dir Wind Speed Gust Speed Precip Events Conditions
12:00 AM 78 °F - 72 °F 78% 29.71 in - SSE 9.2 mph - -   Overcast
12:00 AM 78.8 °F - 73.4 °F 83% 29.71 in 6.2 mi SSE 9.2 mph - N/A   Partly Cloudy
12:30 AM 78.8 °F - 73.4 °F 83% 29.68 in 6.2 mi SE 10.4 mph - N/A   Mostly Cloudy
1:00 AM 79 °F - 73 °F 77% 29.70 in - SSE 10.4 mph - -  
1:00 AM 78.8 °F - 73.4 °F 83% 29.68 in 6.2 mi SSE 10.4 mph - N/A   Mostly Cloudy
1:30 AM 78.8 °F - 75.2 °F 89% 29.68 in 6.2 mi NNW 4.6 mph - N/A   Mostly Cloudy
2:00 AM 78.8 °F - 73.4 °F 83% 29.65 in 6.2 mi NE 3.5 mph - N/A   Partly Cloudy
2:30 AM 78.8 °F - 73.4 °F 83% 29.68 in 6.2 mi SSE 5.8 mph - N/A   Mostly Cloudy
3:00 AM 78 °F - 74 °F 86% 29.68 in - WSW 4.6 mph - -   Overcast
3:00 AM 78.8 °F - 75.2 °F 89% 29.65 in 6.2 mi WSW 4.6 mph - N/A   Partly Cloudy
3:30 AM 78.8 °F - 75.2 °F 89% 29.68 in 6.2 mi Calm Calm - N/A   Partly Cloudy
4:00 AM 78 °F - 74 °F 86% 29.69 in - SW 1.2 mph - -  
4:00 AM 78.8 °F - 75.2 °F 89% 29.68 in 6.2 mi SW 1.2 mph - N/A   Mostly Cloudy
4:30 AM 78.8 °F - 75.2 °F 89% 29.68 in 6.2 mi SE 5.8 mph - N/A   Mostly Cloudy
5:00 AM 78.8 °F - 75.2 °F 89% 29.68 in 6.2 mi SSE 4.6 mph - N/A   Mostly Cloudy
5:30 AM 78.8 °F - 75.2 °F 89% 29.68 in 6.2 mi SSE 4.6 mph - N/A   Mostly Cloudy
6:00 AM 79 °F - 75 °F 85% 29.70 in - South 3.5 mph - -  
6:00 AM 78.8 °F - 75.2 °F 89% 29.68 in 6.2 mi South 3.5 mph - N/A   Mostly Cloudy
6:30 AM 78.8 °F - 75.2 °F 89% 29.71 in 6.2 mi SE 9.2 mph - N/A   Mostly Cloudy
7:00 AM 79 °F - 75 °F 85% 29.73 in - SE 3.5 mph - -  
7:00 AM 78.8 °F - 75.2 °F 89% 29.71 in 6.2 mi SE 3.5 mph - N/A   Mostly Cloudy
7:30 AM 80.6 °F 87.1 °F 77.0 °F 89% 29.71 in 6.2 mi North 2.3 mph - N/A   Mostly Cloudy
8:00 AM 84.2 °F 94.1 °F 77.0 °F 79% 29.74 in 6.2 mi SE 1.2 mph - N/A   Mostly Cloudy
8:30 AM 86.0 °F 95.1 °F 75.2 °F 70% 29.74 in 6.2 mi NW 3.5 mph - N/A   Mostly Cloudy
9:00 AM 87 °F - 73 °F 55% 29.75 in 19 mi NNW 9.2 mph - -   Partly Cloudy
9:00 AM 87.8 °F 95.6 °F 73.4 °F 62% 29.74 in 6.2 mi NNW 9.2 mph - N/A   Mostly Cloudy
9:30 AM 87.8 °F 95.6 °F 73.4 °F 62% 29.74 in 6.2 mi North 9.2 mph - N/A   Mostly Cloudy
10:00 AM 89 °F - 72 °F 49% 29.76 in - West 6.9 mph - -  
10:00 AM 87.8 °F 95.6 °F 73.4 °F 62% 29.74 in 6.2 mi West 6.9 mph - N/A   Mostly Cloudy
10:30 AM 89.6 °F 99.8 °F 75.2 °F 62% 29.74 in 6.2 mi NNW 10.4 mph - N/A   Mostly Cloudy
11:00 AM 89.6 °F 98.2 °F 73.4 °F 59% 29.74 in 6.2 mi NW 8.1 mph - N/A   Mostly Cloudy
11:30 AM 89.6 °F 99.8 °F 75.2 °F 62% 29.71 in 6.2 mi North 17.3 mph - N/A   Mostly Cloudy
12:00 PM 89 °F - 75 °F 55% 29.73 in - North 12.7 mph - -  
12:00 PM 89.6 °F 99.8 °F 75.2 °F 62% 29.71 in 6.2 mi North 12.7 mph - N/A   Mostly Cloudy
12:30 PM 87.8 °F 97.6 °F 75.2 °F 66% 29.71 in 6.2 mi North 12.7 mph - N/A   Mostly Cloudy
1:00 PM 87 °F - 77 °F 64% 29.73 in - North 15.0 mph - -  
1:00 PM 87.8 °F 99.7 °F 77.0 °F 70% 29.71 in 6.2 mi North 15.0 mph - N/A   Mostly Cloudy
1:30 PM 86.0 °F 96.9 °F 77.0 °F 74% 29.71 in 6.2 mi North 10.4 mph - N/A   Mostly Cloudy
2:00 PM 86.0 °F 96.9 °F 77.0 °F 74% 29.71 in 6.2 mi North 8.1 mph - N/A   Mostly Cloudy
2:30 PM 87.8 °F 102.5 °F 78.8 °F 75% 29.68 in 6.2 mi North 10.4 mph - N/A   Mostly Cloudy
3:00 PM 86 °F - 78 °F 71% 29.69 in 19 mi North 13.8 mph - -   Partly Cloudy
3:00 PM 86.0 °F 99.3 °F 78.8 °F 79% 29.68 in 6.2 mi North 13.8 mph - N/A   Mostly Cloudy
3:30 PM 86.0 °F 99.3 °F 78.8 °F 79% 29.65 in 6.2 mi North 11.5 mph - N/A   Mostly Cloudy
4:00 PM 85 °F - 77 °F 72% 29.67 in - North 11.5 mph - -  
4:00 PM 84.2 °F 94.1 °F 77.0 °F 79% 29.65 in 6.2 mi North 11.5 mph - N/A   Mostly Cloudy
4:30 PM 84.2 °F 96.1 °F 78.8 °F 84% 29.68 in 6.2 mi NNW 11.5 mph - N/A   Mostly Cloudy
5:00 PM 86.0 °F 99.3 °F 78.8 °F 79% 29.68 in 6.2 mi NNW 9.2 mph - N/A   Mostly Cloudy
5:30 PM 86.0 °F 99.3 °F 78.8 °F 79% 29.68 in 6.2 mi NNW 11.5 mph - N/A   Mostly Cloudy
6:00 PM 85 °F - 79 °F 78% 29.70 in - NNW 10.4 mph - -   Overcast
6:00 PM 84.2 °F 96.1 °F 78.8 °F 84% 29.68 in 6.2 mi NNW 10.4 mph - N/A   Mostly Cloudy
6:30 PM 84.2 °F 96.1 °F 78.8 °F 84% 29.71 in 6.2 mi NNW 9.2 mph - N/A   Mostly Cloudy
7:00 PM 84 °F - 79 °F 80% 29.75 in - NNW 8.1 mph - -  
7:00 PM 84.2 °F 96.1 °F 78.8 °F 84% 29.74 in 6.2 mi NNW 8.1 mph - N/A   Mostly Cloudy
7:32 PM 82.4 °F 92.4 °F 78.8 °F 89% 29.77 in 6.2 mi WNW 8.1 mph - N/A Rain , Thunderstorm Light Thunderstorms and Rain
8:00 PM 82.4 °F 92.4 °F 78.8 °F 89% 29.74 in 6.2 mi WSW 4.6 mph - N/A Rain , Thunderstorm Light Rain
8:30 PM 80.6 °F 88.1 °F 78.8 °F 94% 29.77 in 6.2 mi West 3.5 mph - N/A Rain Light Rain
9:00 PM 81 °F - 78 °F 88% 29.80 in - West 6.9 mph - -   Overcast
9:00 PM 80.6 °F 88.1 °F 78.8 °F 94% 29.80 in 6.2 mi West 6.9 mph - N/A Rain Light Rain
9:30 PM 78.8 °F - 77.0 °F 94% 29.80 in 6.2 mi West 9.2 mph - N/A Rain Light Rain
10:00 PM 78 °F - 76 °F 91% 29.81 in - West 10.4 mph - -  
10:00 PM 78.8 °F - 75.2 °F 89% 29.80 in 6.2 mi West 10.4 mph - N/A Rain Light Rain
10:30 PM 77.0 °F - 75.2 °F 94% 29.80 in 6.2 mi West 8.1 mph - N/A Rain Light Rain
11:00 PM 77.0 °F - 75.2 °F 94% 29.80 in 6.2 mi West 4.6 mph - N/A Rain Light Rain
11:30 PM 78.8 °F - 75.2 °F 89% 29.80 in 6.2 mi SE 3.5 mph - N/A Rain Light Rain